Location: Unspecified
(0.0000°N, 0.0000°E)
Time: 13:36:45
(UTC+02:00)

GPS 2-15 Rocket1 - Visible Passes

Search period start: 27 August 2016 00:00
Search period end: 06 September 2016 00:00
Orbit: 625 x 677 km, 19.8° (Epoch: 27 August)

Date Brightness Start Highest point End Pass type
(mag) Time Alt. Az. Time Alt. Az. Time Alt. Az.
27 Aug 5.3 05:51:27 20° SE 05:51:27 20° SE 05:53:05 10° SE visible
27 Aug 5.1 07:29:43 10° SW 07:32:53 17° SSW 07:36:02 10° SSE visible
28 Aug 4.9 06:16:30 21° S 06:16:30 21° S 06:19:01 10° SE visible
29 Aug 5.1 06:41:30 16° SSW 06:41:37 16° SSW 06:44:34 10° SSE visible
30 Aug 5.5 07:07:50 10° SSW 07:08:28 10° S 07:09:04 10° S visible
03 Sep 5.5 21:09:24 10° N 21:09:58 10° NNE 21:10:32 10° NNE visible
04 Sep 5.1 21:33:49 10° NNW 21:36:23 16° N 21:36:23 16° N visible
05 Sep 5.2 21:59:24 10° NW 22:01:13 19° NNW 22:01:13 19° NNW visible
